When you browse on this site, cookies collect data to enhance your experience and personalize the content and advertising you see.
Visit our Privacy Policy to learn more. By continuing to use the site, you agree to this use of cookies and data.
  • In United Kingdom
  • List of Countries
  • For 7 days
  • Water Temperature
  • Satellite Maps
  • Weather Map
  • Weather Widgets
  • user-avatar
    Login

    Hourly Weather Camopi

    Today, 18 November, Sunday

    Time Temperature Precipitation Wind Pressure Humidity
    00:00 +25°C° 0 mm 1 mps 748 mmHg 95%
    01:00 +24°C° 0 mm 1 mps 748 mmHg 96%
    02:00 +22°C° 0 mm 0 mps 748 mmHg 98%
    03:00 +22°C° 0 mm 0 mps 748 mmHg 99%
    04:00 +22°C° 0 mm 0 mps 748 mmHg 99%
    05:00 +22°C° 0 mm 0 mps 748 mmHg 99%
    06:00 +22°C° 0 mm 0 mps 748 mmHg 99%
    07:00 +24°C° 0 mm 0 mps 748 mmHg 90%
    08:00 +28°C° 0 mm 1 mps 749 mmHg 80%
    09:00 +30°C° 0 mm 1 mps 749 mmHg 71%
    10:00 +31°C° 0.3 mm 1 mps 749 mmHg 68%
    11:00 +32°C° 0.3 mm 2 mps 749 mmHg 66%
    12:00 +34°C° 0.3 mm 2 mps 748 mmHg 63%
    13:00 +32°C° 0.9 mm 2 mps 748 mmHg 67%
    14:00 +32°C° 0.9 mm 2 mps 747 mmHg 70%
    15:00 +31°C° 0.9 mm 1 mps 747 mmHg 74%
    16:00 +30°C° 0.6 mm 1 mps 747 mmHg 81%
    17:00 +29°C° 0.6 mm 1 mps 747 mmHg 88%
    18:00 +27°C° 0.6 mm 1 mps 747 mmHg 95%
    19:00 +27°C° 0.2 mm 1 mps 747 mmHg 96%
    20:00 +26°C° 0.2 mm 1 mps 748 mmHg 97%
    21:00 +25°C° 0.2 mm 1 mps 749 mmHg 99%
    22:00 +25°C° 0 mm 1 mps 749 mmHg 99%
    23:00 +23°C° 0 mm 0 mps 749 mmHg 99%

    Tomorrow, 19 November, Monday

    Time Temperature Precipitation Wind Pressure Humidity
    00:00 +23°C° 0 mm 0 mps 749 mmHg 99%
    01:00 +23°C° 0 mm 0 mps 748 mmHg 99%
    02:00 +22°C° 0 mm 0 mps 748 mmHg 99%
    03:00 +22°C° 0 mm 0 mps 747 mmHg 99%
    04:00 +22°C° 0 mm 0 mps 747 mmHg 99%
    05:00 +22°C° 0 mm 0 mps 747 mmHg 99%
    06:00 +22°C° 0 mm 0 mps 747 mmHg 99%
    07:00 +23°C° 0 mm 0 mps 748 mmHg 96%
    08:00 +25°C° 0 mm 0 mps 748 mmHg 92%
    09:00 +28°C° 0 mm 1 mps 749 mmHg 88%
    10:00 +29°C° 0.5 mm 1 mps 749 mmHg 84%
    11:00 +30°C° 0.5 mm 1 mps 749 mmHg 80%
    12:00 +31°C° 0.5 mm 2 mps 748 mmHg 76%
    13:00 +31°C° 1.1 mm 1 mps 748 mmHg 78%
    14:00 +31°C° 1.1 mm 1 mps 747 mmHg 80%
    15:00 +31°C° 1.1 mm 1 mps 746 mmHg 81%
    16:00 +30°C° 0.5 mm 1 mps 746 mmHg 84%
    17:00 +29°C° 0.5 mm 1 mps 746 mmHg 86%
    18:00 +28°C° 0.5 mm 1 mps 746 mmHg 88%
    19:00 +27°C° 0.1 mm 1 mps 747 mmHg 91%
    20:00 +26°C° 0.1 mm 1 mps 747 mmHg 94%
    21:00 +26°C° 0.1 mm 1 mps 748 mmHg 98%
    22:00 +25°C° 0 mm 1 mps 748 mmHg 98%
    23:00 +25°C° 0 mm 1 mps 748 mmHg 99%

    Day after tomorrow, 20 November, Tuesday

    Time Temperature Precipitation Wind Pressure Humidity
    00:00 +25°C° 0 mm 1 mps 748 mmHg 99%
    01:00 +23°C° 0 mm 0 mps 748 mmHg 99%
    02:00 +23°C° 0 mm 0 mps 747 mmHg 99%
    03:00 +23°C° 0 mm 0 mps 747 mmHg 99%
    04:00 +23°C° 0 mm 0 mps 747 mmHg 99%
    05:00 +23°C° 0 mm 0 mps 747 mmHg 99%
    06:00 +23°C° 0 mm 0 mps 747 mmHg 99%
    07:00 +26°C° 0 mm 1 mps 748 mmHg 94%
    08:00 +27°C° 0 mm 1 mps 749 mmHg 89%
    09:00 +28°C° 0 mm 1 mps 749 mmHg 83%
    10:00 +29°C° 0.7 mm 1 mps 749 mmHg 81%
    11:00 +30°C° 0.7 mm 1 mps 749 mmHg 78%
    12:00 +31°C° 0.7 mm 2 mps 748 mmHg 76%
    13:00 +31°C° 1.1 mm 1 mps 748 mmHg 76%
    14:00 +31°C° 1.1 mm 1 mps 747 mmHg 76%
    15:00 +31°C° 1.1 mm 1 mps 746 mmHg 76%
    16:00 +30°C° 0.7 mm 1 mps 746 mmHg 80%
    17:00 +29°C° 0.7 mm 1 mps 746 mmHg 84%
    18:00 +28°C° 0.7 mm 1 mps 746 mmHg 88%
    19:00 +27°C° 0.1 mm 1 mps 747 mmHg 90%
    20:00 +26°C° 0.1 mm 1 mps 747 mmHg 92%
    21:00 +26°C° 0.1 mm 1 mps 748 mmHg 94%
    22:00 +25°C° 0 mm 1 mps 748 mmHg 96%
    23:00 +25°C° 0 mm 1 mps 748 mmHg 97%

    21 November, Wednesday

    Time Temperature Precipitation Wind Pressure Humidity
    00:00 +25°C° 0 mm 1 mps 748 mmHg 99%
    01:00 +23°C° 0 mm 0 mps 748 mmHg 99%
    02:00 +22°C° 0 mm 0 mps 747 mmHg 99%
    03:00 +22°C° 0 mm 0 mps 747 mmHg 99%
    04:00 +22°C° 0 mm 0 mps 747 mmHg 99%
    05:00 +23°C° 0 mm 0 mps 747 mmHg 99%
    06:00 +23°C° 0 mm 0 mps 748 mmHg 99%
    07:00 +26°C° 0 mm 1 mps 748 mmHg 94%
    08:00 +27°C° 0 mm 1 mps 749 mmHg 88%
    09:00 +29°C° 0 mm 1 mps 749 mmHg 83%
    10:00 +31°C° 0 mm 1 mps 749 mmHg 71%
    11:00 +34°C° 0 mm 2 mps 749 mmHg 59%
    12:00 +36°C° 0 mm 2 mps 748 mmHg 47%
    13:00 +37°C° 0 mm 2 mps 747 mmHg 46%
    14:00 +37°C° 0 mm 2 mps 746 mmHg 45%
    15:00 +37°C° 0 mm 2 mps 745 mmHg 44%
    16:00 +36°C° 0 mm 2 mps 745 mmHg 49%
    17:00 +34°C° 0 mm 2 mps 746 mmHg 53%
    18:00 +32°C° 0 mm 2 mps 746 mmHg 58%
    19:00 +31°C° 0.1 mm 2 mps 746 mmHg 65%
    20:00 +29°C° 0.1 mm 2 mps 747 mmHg 73%
    21:00 +28°C° 0.1 mm 2 mps 748 mmHg 80%
    22:00 +27°C° 0 mm 1 mps 748 mmHg 85%
    23:00 +26°C° 0 mm 1 mps 748 mmHg 90%

    22 November, Thursday

    Time Temperature Precipitation Wind Pressure Humidity
    00:00 +25°C° 0 mm 1 mps 748 mmHg 95%
    01:00 +25°C° 0 mm 1 mps 747 mmHg 97%
    02:00 +23°C° 0 mm 0 mps 747 mmHg 98%
    03:00 +23°C° 0 mm 0 mps 747 mmHg 99%
    04:00 +23°C° 0 mm 0 mps 747 mmHg 99%
    05:00 +23°C° 0 mm 0 mps 747 mmHg 99%
    06:00 +23°C° 0 mm 0 mps 747 mmHg 99%
    07:00 +26°C° 0 mm 1 mps 748 mmHg 90%
    08:00 +28°C° 0 mm 1 mps 748 mmHg 82%
    09:00 +30°C° 0 mm 1 mps 749 mmHg 73%
    10:00 +32°C° 0.1 mm 2 mps 748 mmHg 65%
    11:00 +34°C° 0.1 mm 2 mps 748 mmHg 58%
    12:00 +36°C° 0.1 mm 2 mps 747 mmHg 51%
    13:00 +35°C° 0.2 mm 2 mps 747 mmHg 52%
    14:00 +35°C° 0.2 mm 2 mps 746 mmHg 52%
    15:00 +34°C° 0.2 mm 1 mps 745 mmHg 53%
    16:00 +34°C° 0.1 mm 2 mps 745 mmHg 57%
    17:00 +32°C° 0.1 mm 2 mps 745 mmHg 62%
    18:00 +31°C° 0.1 mm 2 mps 746 mmHg 66%
    19:00 +30°C° 0 mm 2 mps 746 mmHg 72%
    20:00 +28°C° 0 mm 1 mps 747 mmHg 78%
    21:00 +27°C° 0 mm 1 mps 747 mmHg 84%
    22:00 +27°C° 0 mm 1 mps 747 mmHg 89%
    23:00 +26°C° 0 mm 1 mps 747 mmHg 93%

    23 November, Friday

    Time Temperature Precipitation Wind Pressure Humidity
    00:00 +25°C° 0 mm 1 mps 747 mmHg 98%
    01:00 +25°C° 0 mm 1 mps 747 mmHg 98%
    02:00 +25°C° 0 mm 1 mps 747 mmHg 99%
    03:00 +23°C° 0 mm 0 mps 746 mmHg 99%
    04:00 +23°C° 0 mm 0 mps 746 mmHg 99%
    05:00 +23°C° 0 mm 0 mps 747 mmHg 99%
    06:00 +25°C° 0 mm 1 mps 747 mmHg 98%
    07:00 +26°C° 0 mm 1 mps 747 mmHg 90%
    08:00 +28°C° 0 mm 1 mps 748 mmHg 82%
    09:00 +29°C° 0 mm 2 mps 749 mmHg 74%
    10:00 +31°C° 0.1 mm 2 mps 748 mmHg 67%
    11:00 +34°C° 0.1 mm 2 mps 748 mmHg 60%
    12:00 +35°C° 0.1 mm 2 mps 747 mmHg 53%
    13:00 +34°C° 0.8 mm 2 mps 746 mmHg 61%
    14:00 +34°C° 0.8 mm 2 mps 746 mmHg 68%
    15:00 +32°C° 0.8 mm 2 mps 745 mmHg 75%
    16:00 +30°C° 0.6 mm 1 mps 745 mmHg 81%
    17:00 +29°C° 0.6 mm 1 mps 745 mmHg 86%
    18:00 +28°C° 0.6 mm 1 mps 745 mmHg 92%
    19:00 +27°C° 0.3 mm 1 mps 746 mmHg 94%
    20:00 +26°C° 0.3 mm 1 mps 747 mmHg 96%
    21:00 +25°C° 0.3 mm 1 mps 747 mmHg 98%
    22:00 +25°C° 0.2 mm 1 mps 747 mmHg 98%
    23:00 +23°C° 0.2 mm 0 mps 747 mmHg 99%
    Show more